Miscellaneous Local Product
Issued by NWS Hastings, NE

Home | Current Version | Previous Version | Graphics & Text | Print | Product List | Glossary On
Versions: 1 2 3 4 5 6 7 8 9 10 11 12 13 14 15 16 17 18 19 20 21 22 23 24 25 26 27 28 29 30 31 32 33 34 35 36 37 38 39 40 41 42 43 44 45 46 47 48 49 50
742
AXUS43 KGID 301402
MISGRI

GID CWA HOURLY WEATHER ROUNDUP
NATIONAL WEATHER SERVICE HASTINGS NE
900 AM CDT SAT JUL 30 2016

NOTE: "FAIR" INDICATES FEW OR NO CLOUDS BELOW 12,000 FEET WITH NO
SIGNIFICANT WEATHER AND/OR OBSTRUCTIONS TO VISIBILITY.

...SOUTH CENTRAL NEBRASKA...

CITY           SKY/WX    TMP DP  RH WIND       PRES   REMARKS
GRAND ISLAND   TSTM      62  62 100 E16       30.04S FOG
HASTINGS       CLOUDY    65  60  84 SE10      30.03S
KEARNEY        CLOUDY    64  63  94 NE9       30.06R
ORD            RAIN      64  62  93 SE5       30.03F
YORK           LGT RAIN  64  63  94 SE6       30.04S
AURORA         TSTM      63  63  99 N7        30.06R
LEXINGTON      PTSUNNY   67  64  89 E10       30.04R
HOLDREGE       CLOUDY    67  64  89 SE7       30.02S
HEBRON         CLOUDY    68  64  85 SE6       30.02F

...NEBRASKA PANHANDLE...

CITY           SKY/WX    TMP DP  RH WIND       PRES   REMARKS
CHADRON        MOSUNNY   66  62  87 CALM      29.97R
ALLIANCE       SUNNY     65  60  84 S7        30.01F
SCOTTSBLUFF    SUNNY     64  59  83 E10       30.01F
SIDNEY         MOSUNNY   64  62  93 S7        30.04F

...WESTERN AND NORTH CENTRAL NEBRASKA...

CITY           SKY/WX    TMP DP  RH WIND       PRES   REMARKS
VALENTINE      SUNNY     71  61  70 S16G24    30.00F
AINSWORTH      MOSUNNY   70  58  66 S13       30.02S
ONEILL         CLOUDY    66  63  89 S5        30.03R
BROKEN BOW     CLOUDY    64  60  87 E13       30.06R
IMPERIAL       CLOUDY    68  62  81 S7        30.00F
NORTH PLATTE   SUNNY     68  64  87 E8        30.02S
MCCOOK         SUNNY     70  65  84 E6        30.00R

...EASTERN NEBRASKA...

CITY           SKY/WX    TMP DP  RH WIND       PRES   REMARKS
NORFOLK        CLOUDY    64  61  90 CALM      30.06R
SO SIOUX CITY  SUNNY     69  62  78 E5        30.04S
TEKAMAH        CLOUDY    67  62  84 CALM      30.05R
COLUMBUS       CLOUDY    64  55  72 CALM      30.05S
ALBION         RAIN      63  61  93 S3        30.06S
OMAHA EPPLEY   PTSUNNY   69  63  81 CALM      30.05S
OFFUTT AFB     PTSUNNY   66  66 100 CALM      30.04S
MILLARD        PTSUNNY   71  64  78 CALM      30.05R
LINCOLN        NOT AVBL
NEBRASKA CITY  SUNNY     68  67  97 CALM      30.05R
BEATRICE       MOSUNNY   69  63  80 E3        30.03S
FALLS CITY     SUNNY     70  66  87 VRB3      30.03R

...NORTHERN KANSAS...

CITY           SKY/WX    TMP DP  RH WIND       PRES   REMARKS
GOODLAND       SUNNY     70  63  78 S6        30.02F
HILL CITY      SUNNY     73  68  84 CALM      30.00S
NORTON         MOSUNNY   70  63  78 E5        30.01R
SMITH CENTER   CLOUDY    70  66  88 E7        30.01S
BELOIT         MOSUNNY   72  66  83 SE7       30.01R
HAYS           PTSUNNY   75  63  64 S12       29.99F
RUSSELL        PTSUNNY   74  66  76 S9        30.00R
CONCORDIA      MOSUNNY   72  65  78 SE13      30.02R
SALINA         MOSUNNY   76  70  82 S3        30.02R
TOPEKA         CLOUDY    71  64  78 CALM      30.03R



USA.gov is the U.S. government's official web portal to all federal, state and local government web resources and services.